Date,TemperatureHighF,TemperatureAvgF,TemperatureLowF,DewpointHighF,DewpointAvgF,DewpointLowF,HumidityHigh,HumidityAvg,HumidityLow,PressureMaxIn,PressureMinIn,WindSpeedMaxMPH,WindSpeedAvgMPH,GustSpeedMaxMPH,PrecipitationSumIn
2013-5-1,83.9,68.0,48.4,63.2,54.0,44.7,92,64,41,30.20,30.03,10,2,10,0.00
2013-5-2,81.2,66.6,49.1,59.2,50.4,43.6,86,59,38,30.21,30.10,14,3,14,0.00
2013-5-3,80.5,66.1,52.0,58.9,45.9,36.5,70,50,25,30.11,30.02,12,3,12,0.00
2013-5-4,72.7,62.9,53.6,49.2,42.9,35.9,69,49,33,30.09,30.02,12,4,12,0.00
2013-5-5,74.3,59.7,44.3,48.3,39.0,33.6,78,49,26,30.07,30.00,11,2,11,0.00
2013-5-6,77.2,59.2,38.7,51.9,42.1,32.0,85,55,38,30.03,29.95,10,2,10,0.00
2013-5-7,78.5,62.4,43.2,56.9,46.7,37.0,84,59,38,30.03,29.97,11,2,11,0.00
2013-5-8,83.7,64.0,47.2,53.7,47.8,40.8,88,59,30,30.00,29.91,10,1,10,0.00
2013-5-9,87.3,67.5,45.9,59.9,49.7,40.4,89,57,31,29.94,29.87,8,2,8,0.00
2013-5-10,66.6,56.7,42.7,60.6,50.2,38.6,88,79,59,29.90,29.73,14,4,14,0.21
2013-5-11,64.6,48.3,38.2,49.7,40.7,30.6,89,76,48,29.86,29.69,23,4,23,0.00
2013-5-12,50.4,41.2,29.9,33.1,29.3,19.8,80,64,47,30.04,29.84,18,6,18,0.00
2013-5-13,64.4,42.8,23.9,32.8,25.5,17.6,85,54,28,30.12,30.04,14,2,14,0.00
2013-5-14,81.9,59.5,38.7,55.7,41.3,26.6,64,52,37,30.05,29.68,15,3,15,0.00
2013-5-15,86.4,71.5,55.4,58.9,49.4,42.1,84,49,26,29.78,29.57,17,5,17,0.00
2013-5-16,88.2,67.7,43.7,53.8,44.3,35.4,82,47,25,30.00,29.77,15,2,15,0.00
2013-5-17,78.5,63.9,49.1,49.7,43.0,34.0,67,48,32,30.11,30.00,8,2,8,0.00
2013-5-18,83.7,68.7,53.6,52.8,46.1,40.1,65,46,31,30.11,30.00,10,2,10,0.00
2013-5-19,91.3,71.8,49.3,64.3,54.6,40.6,80,57,39,30.02,29.86,8,1,8,0.00
2013-5-20,92.7,77.0,60.7,71.6,62.6,54.2,87,64,39,29.91,29.76,17,4,17,0.00
2013-5-21,88.9,77.8,68.9,67.8,61.9,56.9,78,60,41,29.81,29.70,14,4,14,0.00
2013-5-22,82.6,69.7,62.3,64.7,60.6,56.7,86,73,47,29.74,29.61,18,4,18,0.08
2013-5-23,63.4,53.0,43.2,58.4,49.5,39.4,91,88,79,30.11,29.68,15,3,15,0.04
2013-5-24,60.7,47.3,37.8,41.8,37.8,31.3,90,71,46,30.31,30.11,14,3,14,0.00
2013-5-25,69.8,51.5,31.3,44.5,35.7,26.5,90,58,35,30.35,30.24,10,2,10,0.00
2013-5-26,72.7,55.6,33.3,46.7,35.8,26.8,87,52,28,30.30,30.18,13,1,13,0.00
2013-5-27,61.6,50.3,37.8,48.2,40.9,29.4,89,71,53,30.23,29.96,8,1,8,0.46
2013-5-28,74.9,62.5,51.3,70.7,58.9,47.8,92,88,81,29.96,29.78,13,2,13,0.32
2013-5-29,83.5,74.6,64.3,69.0,64.9,59.1,89,73,53,29.97,29.73,16,3,16,0.02
2013-5-30,89.8,75.5,65.2,73.8,66.2,60.2,84,74,53,30.03,29.93,16,3,16,0.26
2013-5-31,83.2,73.7,68.4,69.9,66.2,62.7,89,78,62,29.98,29.81,14,4,14,0.08